Weather History for KPOU - October, 2012

Change the Weather History Date:

Sunday, October 14, 2012

  Actual Average Record
Temperature  
Mean Temperature 58 °F 52 °F  
Max Temperature 69 °F 64 °F 82 °F (1954)
Min Temperature 47 °F 39 °F 21 °F (1953)
Degree Days  
Heating Degree Days 7 14  
Month to date heating degree days 143 158  
Since 1 July heating degree days 243 298  
Cooling Degree Days 0 0  
Month to date cooling degree days 6 0  
Year to date cooling degree days 895 668  
Growing Degree Days 8 (Base 50)    
Moisture  
Dew Point 47 °F    
Average Humidity 63    
Maximum Humidity 77    
Minimum Humidity 49    
Precipitation  
Precipitation 0.01 in 0.15 in 2.88 in (2005)
Month to date precipitation 1.80 2.09  
Year to date precipitation 29.58 37.15  
Sea Level Pressure  
Sea Level Pressure 30.06 in    
Wind  
Wind Speed 5 mph (SSE)    
Max Wind Speed 13 mph    
Max Gust Speed 18 mph    
Visibility 10 miles    
Events Rain    
T = Trace of Precipitation, MM = Missing Value Source: NWS Daily Summary

Daily Weather History Graph

Daily Weather History Graph

Search for Another Location

Airport or City:

Trip Planner

Search our weather history database for the weather conditions in past years. The results will help you decide how hot, cold, wet, or windy it might be!

Date:

Astronomy

Oct. 14, 2012 Rise Set
Actual Time 7:07 AM EDT 6:15 PM EDT
Civil Twilight 6:39 AM EDT 6:43 PM EDT
Nautical Twilight 6:06 AM EDT 7:15 PM EDT
Astronomical Twilight 5:34 AM EDT 7:47 PM EDT
Moon 6:02 AM EDT (10/14) 5:33 PM EDT (10/14)
Length of Visible Light 12h 04m
Length of Day
11h 08m
Waning Crescent, 1% of the Moon is Illuminated
Oct 14
Waning Crescent
Oct 15
New
Oct 21
First Quarter
Oct 29
Full
Nov 6
Last Quarter

Hourly Weather History & Observations

Time (EDT) Temp. Dew Point Humidity Pressure Visibility Wind Dir Wind Speed Gust Speed Precip Events Conditions
1:53 AM 50.0 °F 37.9 °F 63% 30.22 in 10.0 mi South 4.6 mph - N/A   Clear
2:53 AM 48.9 °F 39.0 °F 69% 30.19 in 10.0 mi SSE 3.5 mph - N/A   Clear
3:53 AM 52.0 °F 37.9 °F 59% 30.18 in 10.0 mi Variable 4.6 mph - N/A   Overcast
4:53 AM 52.0 °F 39.0 °F 61% 30.16 in 10.0 mi Variable 3.5 mph - N/A   Overcast
5:53 AM 52.0 °F 42.1 °F 69% 30.16 in 10.0 mi South 4.6 mph - 0.00 in Rain Light Rain
6:53 AM 50.0 °F 44.1 °F 80% 30.14 in 10.0 mi SSE 3.5 mph - 0.00 in   Overcast
7:53 AM 51.1 °F 45.0 °F 80% 30.15 in 10.0 mi Calm Calm - N/A   Overcast
8:53 AM 52.0 °F 46.9 °F 83% 30.14 in 10.0 mi Calm Calm - 0.01 in Rain Light Rain
9:53 AM 55.0 °F 48.9 °F 80% 30.14 in 10.0 mi Calm Calm - 0.00 in   Overcast
10:53 AM 57.0 °F 46.9 °F 69% 30.13 in 10.0 mi Variable 4.6 mph - N/A   Overcast
11:53 AM 61.0 °F 48.9 °F 64% 30.11 in 10.0 mi SSW 6.9 mph - N/A   Mostly Cloudy
12:53 PM 63.0 °F 48.0 °F 58% 30.07 in 10.0 mi Variable 4.6 mph - N/A   Scattered Clouds
1:53 PM 66.9 °F 50.0 °F 54% 30.04 in 10.0 mi Variable 6.9 mph - N/A   Clear
2:53 PM 68.0 °F 50.0 °F 52% 30.01 in 10.0 mi Variable 6.9 mph - N/A   Clear
3:53 PM 68.0 °F 48.9 °F 50% 30.00 in 10.0 mi SW 9.2 mph - N/A   Clear
4:53 PM 69.1 °F 50.0 °F 51% 29.98 in 10.0 mi SSE 6.9 mph - N/A   Clear
5:53 PM 66.9 °F 51.1 °F 57% 29.98 in 10.0 mi South 4.6 mph - N/A   Clear
6:53 PM 64.9 °F 52.0 °F 63% 29.96 in 10.0 mi SSE 4.6 mph - N/A   Clear
7:53 PM 60.1 °F 51.1 °F 72% 29.96 in 10.0 mi SE 5.8 mph - N/A   Clear
8:53 PM 59.0 °F 50.0 °F 72% 29.95 in 10.0 mi SSE 4.6 mph - N/A   Clear
9:53 PM 63.0 °F 48.9 °F 60% 29.94 in 10.0 mi SSE 4.6 mph - N/A   Clear
10:53 PM 61.0 °F 48.9 °F 64% 29.93 in 10.0 mi SSE 4.6 mph - N/A   Clear
11:53 PM 61.0 °F 50.0 °F 67% 29.91 in 10.0 mi SSE 6.9 mph - N/A   Clear